Terminal Aerodrome Forecast
Issued by NWS Green Bay, WI

Home | Current Version | Previous Version | Graphics & Text | Print | Product List | Glossary On
Versions: 1 2 3 4 5 6 7 8 9 10 11 12 13 14 15 16 17 18 19 20 21 22 23 24 25 26 27 28 29 30 31
000
FTUS43 KGRB 160500
TAFGRB
TAF
KGRB 160520Z 1606/1706 30005KT P6SM SKC
      TEMPO 1608/1612 3SM BR
     FM161600 26008G13KT P6SM SCT035
     FM162300 24004KT P6SM SKC=

USA.gov is the U.S. government's official web portal to all federal, state and local government web resources and services.